Location: Asheville, NC
(35.6000°N, 82.5500°W)
Time: 14:23:26
(UTC-04:00)

STRAND 1 - Pass Details

Date: 07 January 2018
Orbit: 769 x 781 km, 98.5° (Epoch: 16 July)

Event Time Altitude Azimuth Distance (km) Brightness Sun altitude
Exits shadow 20:12:44 21° 192° (SSW) 1,700 ? -31.8°
Drops below altitude 10° 20:14:19 10° 193° (SSW) 2,316 ? -32.1°
Sets 20:16:37 0° 194° (SSW) 3,242 ? -32.6°
